Location: Great Falls
(47.5000°N, 111.3000°W)
Time: 02:21:21
(UTC-06:00)

ACS3 Solar Sail - Visible Passes

Search period start: 12 March 2026 00:00
Search period end: 22 March 2026 00:00
Orbit: 885 x 974 km, 97.2° (Epoch: 11 March)

Date Brightness Start Highest point End Pass type
(mag) Time Alt. Az. Time Alt. Az. Time Alt. Az.
12 Mar 4.4 01:54:27 10° NE 01:54:44 11° NE 01:54:44 11° NE visible
12 Mar 3.4 03:36:01 10° N 03:38:25 26° N 03:38:25 26° N visible
12 Mar 3.7 05:20:46 10° NNW 05:22:06 12° NW 05:22:06 12° NW visible
13 Mar 4.2 02:05:22 10° NE 02:06:15 14° NE 02:06:15 14° NE visible
13 Mar 3.3 03:47:21 10° N 03:49:55 27° N 03:49:55 27° N visible
13 Mar 3.8 05:33:14 10° NW 05:33:36 10° NW 05:33:36 10° NW visible
14 Mar 4.0 02:16:19 10° NNE 02:17:42 16° NE 02:17:42 16° NE visible
14 Mar 3.2 03:58:38 10° N 04:01:22 27° NNW 04:01:22 27° NNW visible
15 Mar 3.9 02:27:17 10° NNE 02:29:06 20° NE 02:29:06 20° NE visible
15 Mar 3.2 04:09:55 10° N 04:12:46 26° NNW 04:12:46 26° NNW visible
16 Mar 3.7 02:38:14 10° NNE 02:40:25 23° NNE 02:40:25 23° NNE visible
16 Mar 3.2 04:21:09 10° N 04:24:05 25° NNW 04:24:05 25° NNW visible
17 Mar 3.5 02:49:10 10° NNE 02:51:41 27° NNE 02:51:41 27° NNE visible
17 Mar 3.2 04:32:23 10° N 04:35:20 22° NW 04:35:20 22° NW visible
18 Mar 3.3 03:00:04 10° NNE 03:02:53 30° NNE 03:02:53 30° NNE visible
18 Mar 3.3 04:43:35 10° NNW 04:46:32 20° NW 04:46:32 20° NW visible
19 Mar 4.3 01:30:20 10° NE 01:30:22 10° NE 01:30:22 10° NE visible
19 Mar 3.1 03:10:56 10° NNE 03:14:01 33° NNE 03:14:01 33° NNE visible
19 Mar 3.4 04:54:48 10° NNW 04:57:40 17° NW 04:57:40 17° NW visible
20 Mar 4.2 01:40:33 10° NE 01:41:27 13° NE 01:41:27 13° NE visible
20 Mar 2.9 03:21:47 10° N 03:25:06 36° N 03:25:06 36° N visible
20 Mar 3.5 05:06:04 10° NNW 05:08:44 15° NW 05:08:44 15° NW visible
21 Mar 4.0 01:50:54 10° NE 01:52:28 16° NE 01:52:28 16° NE visible
21 Mar 2.8 03:32:36 10° N 03:36:06 37° N 03:36:06 37° N visible
21 Mar 3.6 05:17:30 10° NNW 05:19:45 12° NW 05:19:45 12° NW visible
